| time (UTC) | temp F | wind direction | speed MPH | gust MPH | rain 1hr in | rain 24hr in | rain mn in | humidity % | barometer mb |
| 20260902194535 | 69 | 209 | 0.0 | 0.0 | 0.00 | 0.02 | 0.01 | 72 | 1011.4 |
| 20260902193035 | 69 | 250 | 0.0 | 0.0 | 0.00 | 0.02 | 0.01 | 71 | 1011.4 |
| 20260902191535 | 71 | 256 | 0.0 | 0.0 | 0.00 | 0.02 | 0.01 | 70 | 1011.4 |
| 20260902190045 | 67 | 200 | 0.0 | 0.0 | 0.00 | 0.02 | 0.01 | 76 | 1011.6 |
| 20260902184531 | 66 | 245 | 0.0 | 0.0 | 0.00 | 0.05 | 0.01 | 75 | 1011.7 |
| 20260902183023 | 65 | 248 | 0.0 | 0.0 | 0.00 | 0.05 | 0.01 | 79 | 1011.7 |
| 20260902181520 | 65 | 209 | 0.0 | 2.0 | 0.00 | 0.05 | 0.01 | 82 | 1011.7 |
| 20260902180018 | 65 | 238 | 0.0 | 0.0 | 0.00 | 0.05 | 0.01 | 83 | 1011.7 |
| 20260902174517 | 65 | 131 | 0.0 | 0.0 | 0.00 | 0.09 | 0.01 | 86 | 1011.6 |
| 20260902173012 | 62 | 221 | 0.0 | 0.0 | 0.00 | 0.09 | 0.01 | 91 | 1011.6 |
| 20260902171509 | 62 | 197 | 0.0 | 5.0 | 0.00 | 0.09 | 0.01 | 93 | 1011.2 |
| 20260902170008 | 60 | 231 | 0.0 | 0.0 | 0.00 | 0.09 | 0.01 | 93 | 1011.2 |
| 20260902164511 | 60 | 169 | 0.0 | 0.0 | 0.00 | 0.10 | 0.01 | 94 | 1011.2 |
| 20260902163005 | 60 | 189 | 0.0 | 0.0 | 0.00 | 0.10 | 0.01 | 95 | 1011.2 |
| 20260902161507 | 60 | 206 | 0.0 | 0.0 | 0.00 | 0.10 | 0.01 | 95 | 1011.1 |
| 20260902160001 | 60 | 180 | 0.0 | 0.0 | 0.00 | 0.10 | 0.01 | 95 | 1011.0 |
| 20260902154603 | 59 | 180 | 0.0 | 0.0 | 0.00 | 0.16 | 0.01 | 95 | 1010.8 |
| 20260902153057 | 59 | 180 | 0.0 | 0.0 | 0.00 | 0.16 | 0.01 | 95 | 1010.6 |
| 20260902151557 | 59 | 180 | 0.0 | 0.0 | 0.00 | 0.16 | 0.01 | 95 | 1010.5 |
| 20260902150053 | 58 | 176 | 0.0 | 0.0 | 0.00 | 0.16 | 0.01 | 95 | 1010.3 |
| 20260902144551 | 58 | 192 | 0.0 | 3.0 | 0.00 | 0.21 | 0.01 | 95 | 1010.3 |
| 20260902143050 | 57 | 167 | 0.0 | 0.0 | 0.00 | 0.21 | 0.01 | 94 | 1010.3 |
| 20260902141649 | 57 | 179 | 0.0 | 0.0 | 0.00 | 0.21 | 0.01 | 94 | 1010.2 |
| 20260902140049 | 58 | 212 | 0.0 | 0.0 | 0.00 | 0.21 | 0.01 | 94 | 1010.2 |
| 20260902134547 | 58 | 188 | 0.0 | 0.0 | 0.00 | 0.21 | 0.01 | 94 | 1010.0 |
| 20260902133047 | 58 | 188 | 0.0 | 0.0 | 0.00 | 0.21 | 0.01 | 93 | 1009.8 |
| 20260902131545 | 58 | 198 | 0.0 | 0.0 | 0.00 | 0.21 | 0.01 | 93 | 1009.6 |
| 20260902130044 | 58 | 215 | 0.0 | 0.0 | 0.00 | 0.21 | 0.01 | 92 | 1009.4 |
| 20260902124556 | 58 | 200 | 0.0 | 0.0 | 0.00 | 0.21 | 0.01 | 92 | 1009.3 |
| 20260902123045 | 58 | 101 | 0.0 | 0.0 | 0.00 | 0.21 | 0.01 | 92 | 1009.3 |
| 20260902121546 | 58 | 81 | 0.0 | 0.0 | 0.00 | 0.21 | 0.01 | 92 | 1009.0 |
| 20260902120041 | 58 | 68 | 0.0 | 0.0 | 0.00 | 0.21 | 0.01 | 92 | 1009.1 |
| 20260902114539 | 58 | 101 | 0.0 | 0.0 | 3.42 | 0.00 | 0.01 | 92 | 1009.3 |
| 20260902113040 | 58 | 69 | 0.0 | 0.0 | 0.00 | 0.21 | 0.01 | 91 | 1009.3 |
| 20260902111548 | 58 | 9 | 0.0 | 1.0 | 0.00 | 0.21 | 0.01 | 91 | 1009.2 |
| 20260902110038 | 57 | 78 | 0.0 | 0.0 | 0.00 | 0.21 | 0.01 | 91 | 1009.3 |
| 20260902104541 | 58 | 24 | 0.0 | 0.0 | 0.00 | 0.21 | 0.01 | 91 | 1009.4 |
| 20260902103034 | 58 | 109 | 0.0 | 0.0 | 0.00 | 0.21 | 0.01 | 92 | 1009.3 |
| 20260902101538 | 57 | 47 | 0.0 | 0.0 | 0.01 | 0.21 | 0.01 | 92 | 1009.3 |
| 20260902100033 | 57 | 107 | 0.0 | 0.0 | 0.01 | 0.21 | 0.01 | 93 | 1009.3 |
| 20260902094526 | 56 | 173 | 0.0 | 0.0 | 0.01 | 0.21 | 0.01 | 94 | 1009.7 |
| 20260902093025 | 56 | 53 | 0.0 | 0.0 | 0.01 | 0.21 | 0.01 | 94 | 1009.8 |
| 20260902091536 | 56 | 112 | 0.0 | 0.0 | 0.00 | 0.20 | 0.00 | 95 | 1010.0 |
| 20260902090022 | 56 | 35 | 0.0 | 0.0 | 0.00 | 0.20 | 0.00 | 95 | 1010.0 |
| 20260902084521 | 56 | 189 | 0.0 | 0.0 | 0.00 | 0.20 | 0.00 | 95 | 1010.1 |
| 20260902083020 | 55 | 170 | 0.0 | 0.0 | 0.00 | 0.20 | 0.00 | 95 | 1010.0 |
| 20260902081519 | 55 | 34 | 0.0 | 0.0 | 0.00 | 0.20 | 0.00 | 95 | 1010.1 |
| 20260902080017 | 55 | 44 | 0.0 | 0.0 | 0.00 | 0.20 | 0.00 | 95 | 1010.0 |
| 20260902074516 | 56 | 44 | 0.0 | 0.0 | 0.00 | 0.20 | 0.00 | 95 | 1010.0 |
| 20260902073018 | 56 | 64 | 0.0 | 0.0 | 0.00 | 0.20 | 0.00 | 95 | 1010.0 |
| 20260902071521 | 55 | 40 | 0.0 | 0.0 | 0.00 | 0.20 | 0.00 | 95 | 1010.0 |
| 20260902070016 | 56 | 39 | 0.0 | 0.0 | 0.00 | 0.20 | 0.00 | 95 | 1009.9 |
| 20260902064511 | 56 | 31 | 0.0 | 0.0 | 0.00 | 0.20 | 0.20 | 94 | 1010.0 |
| 20260902063014 | 56 | 44 | 0.0 | 0.0 | 0.00 | 0.20 | 0.20 | 94 | 1010.1 |
| 20260902061510 | 56 | 44 | 0.0 | 0.0 | 0.00 | 0.20 | 0.20 | 94 | 1010.1 |
| 20260902060016 | 56 | 44 | 0.0 | 0.0 | 0.01 | 0.20 | 0.20 | 94 | 1010.2 |
| 20260902054512 | 56 | 50 | 0.0 | 0.0 | 0.01 | 0.20 | 0.20 | 93 | 1010.3 |
| 20260902053011 | 55 | 50 | 0.0 | 0.0 | 0.01 | 0.20 | 0.20 | 93 | 1010.3 |
| 20260902051507 | 56 | 50 | 0.0 | 0.0 | 0.01 | 0.20 | 0.20 | 93 | 1010.3 |
| 20260902050009 | 56 | 50 | 0.0 | 0.0 | 0.00 | 0.19 | 0.19 | 92 | 1010.3 |
| 20260902044506 | 56 | 49 | 0.0 | 0.0 | 0.00 | 0.19 | 0.19 | 91 | 1010.1 |
| 20260902043003 | 57 | 237 | 0.0 | 0.0 | 0.00 | 0.19 | 0.19 | 91 | 1010.0 |
| 20260902041608 | 57 | 236 | 0.0 | 0.0 | 0.00 | 0.19 | 0.19 | 90 | 1009.7 |
| 20260902040100 | 58 | 237 | 0.0 | 0.0 | 0.00 | 0.19 | 0.19 | 90 | 1009.6 |
| 20260902034559 | 58 | 200 | 0.0 | 0.0 | 0.00 | 0.19 | 0.19 | 90 | 1009.2 |
| 20260902033110 | 58 | 40 | 0.0 | 5.0 | 0.00 | 0.19 | 0.19 | 91 | 1008.8 |
| 20260902031557 | 59 | 58 | 0.0 | 0.0 | 0.00 | 0.19 | 0.19 | 90 | 1008.9 |
| 20260902030056 | 59 | 13 | 0.0 | 0.0 | 0.00 | 0.19 | 0.19 | 90 | 1009.6 |
| 20260902024556 | 60 | 13 | 0.0 | 0.0 | 0.00 | 0.19 | 0.19 | 89 | 1009.7 |
| 20260902023108 | 60 | 13 | 0.0 | 0.0 | 0.00 | 0.19 | 0.19 | 88 | 1010.0 |
| 20260902021612 | 61 | 13 | 0.0 | 0.0 | 0.00 | 0.19 | 0.19 | 88 | 1009.7 |
| 20260902020059 | 61 | 13 | 0.0 | 1.0 | 0.00 | 0.19 | 0.19 | 87 | 1009.8 |
| 20260902014554 | 61 | 180 | 0.0 | 0.0 | 0.00 | 0.19 | 0.19 | 85 | 1010.0 |
| 20260902013054 | 61 | 206 | 0.0 | 0.0 | 0.00 | 0.19 | 0.19 | 84 | 1010.1 |
| 20260902011554 | 62 | 218 | 0.0 | 0.0 | 0.00 | 0.19 | 0.19 | 84 | 1010.0 |
| 20260902010100 | 62 | 237 | 0.0 | 0.0 | 0.00 | 0.19 | 0.19 | 82 | 1010.1 |
| 20260902004553 | 63 | 202 | 0.0 | 0.0 | 0.00 | 0.19 | 0.19 | 80 | 1010.1 |
| 20260902003052 | 64 | 258 | 0.0 | 0.0 | 0.00 | 0.19 | 0.19 | 78 | 1010.0 |
| 20260902001552 | 65 | 232 | 0.0 | 0.0 | 0.00 | 0.19 | 0.19 | 76 | 1009.9 |
| 20260902000056 | 65 | 227 | 0.0 | 0.0 | 0.00 | 0.19 | 0.19 | 74 | 1009.7 |
| 20260901234609 | 66 | 223 | 0.0 | 0.0 | 0.00 | 0.19 | 0.19 | 73 | 1009.5 |
| 20260901233050 | 68 | 248 | 0.0 | 0.0 | 0.00 | 0.19 | 0.19 | 74 | 1009.4 |
| 20260901231551 | 68 | 251 | 0.0 | 6.0 | 0.00 | 0.19 | 0.19 | 74 | 1009.4 |
| 20260901230125 | 67 | 240 | 0.0 | 1.0 | 0.00 | 0.19 | 0.19 | 74 | 1009.5 |
| 20260901224542 | 66 | 225 | 0.0 | 0.0 | 0.00 | 0.19 | 0.19 | 82 | 1009.5 |
| 20260901223104 | 65 | 208 | 0.0 | 1.0 | 0.00 | 0.19 | 0.19 | 83 | 1009.7 |
| 20260901221540 | 65 | 256 | 0.0 | 0.0 | 0.00 | 0.19 | 0.19 | 84 | 1009.9 |
| 20260901220042 | 64 | 301 | 0.0 | 0.0 | 0.00 | 0.19 | 0.19 | 83 | 1010.0 |
| 20260901214537 | 64 | 173 | 0.0 | 0.0 | 0.00 | 0.19 | 0.19 | 89 | 1010.0 |
| 20260901213039 | 63 | 221 | 0.0 | 0.0 | 0.00 | 0.19 | 0.19 | 88 | 1010.1 |
| 20260901211541 | 63 | 229 | 0.0 | 0.0 | 0.00 | 0.19 | 0.19 | 91 | 1010.1 |
| 20260901210028 | 63 | 230 | 0.0 | 0.0 | 0.00 | 0.19 | 0.19 | 91 | 1010.1 |
| 20260901204540 | 64 | 225 | 0.0 | 0.0 | 0.00 | 0.19 | 0.19 | 89 | 1010.0 |
| 20260901203028 | 65 | 262 | 0.0 | 0.0 | 0.00 | 0.19 | 0.19 | 90 | 1009.8 |
| 20260901201524 | 64 | 112 | 0.0 | 1.0 | 0.00 | 0.19 | 0.19 | 93 | 1010.0 |
| 20260901200036 | 64 | 57 | 0.0 | 0.0 | 0.00 | 0.19 | 0.19 | 94 | 1010.1 |